Weather History for Orange, MA

Change the Weather History Date:

Saturday, December 8, 2012

  Actual Average Record
Temperature  
Mean Temperature 38 °F -  
Max Temperature 42 °F 37 °F 46 °F (1999)
Min Temperature 35 °F 20 °F 5 °F (2008)
Degree Days  
Heating Degree Days 26    
Moisture  
Dew Point 38 °F    
Average Humidity 97    
Maximum Humidity 100    
Minimum Humidity 93    
Precipitation  
Precipitation 0.40 in - - ()
Sea Level Pressure  
Sea Level Pressure 29.94 in    
Wind  
Wind Speed 1 mph (West)    
Max Wind Speed 6 mph    
Max Gust Speed -    
Visibility 2 miles    
Events Fog , Rain    
Averages and records for this station are not official NWS values.
T = Trace of Precipitation, MM = Missing Value Source: NWS Daily Summary

Daily Weather History Graph

Daily Weather History Graph

Search for Another Location

Airport:

Trip Planner

Search our weather history database for the weather conditions in past years. The results will help you decide how hot, cold, wet, or windy it might be!

Date:

Astronomy

Dec. 08, 2012 Rise Set
Actual Time 7:06 AM EST 4:15 PM EST
Civil Twilight 6:34 AM EST 4:47 PM EST
Nautical Twilight 5:59 AM EST 5:23 PM EST
Astronomical Twilight 5:25 AM EST 5:57 PM EST
Moon 1:22 AM EST (12/8) 12:49 PM EST (12/8)
Length of Visible Light 10h 12m
Length of Day
9h 09m
Waning Crescent, 28% of the Moon is Illuminated
Dec 8
Waning Crescent
Dec 13
New
Dec 20
First Quarter
Dec 28
Full
Jan 4
Last Quarter

Hourly Weather History & Observations

Time (EST) Temp. Windchill Dew Point Humidity Pressure Visibility Wind Dir Wind Speed Gust Speed Precip Events Conditions
12:12 AM 35.6 °F - 35.6 °F 100% 30.02 in 1.0 mi Calm Calm - N/A   Overcast
12:25 AM 35.6 °F - 35.6 °F 100% 30.02 in 1.5 mi Calm Calm - N/A   Overcast
12:52 AM 36.0 °F - 36.0 °F 100% 30.03 in 1.2 mi Calm Calm - N/A   Overcast
12:59 AM 35.6 °F - 35.6 °F 100% 30.01 in 0.8 mi Calm Calm - N/A   Overcast
1:06 AM 35.6 °F - 35.6 °F 100% 30.01 in 1.2 mi Calm Calm - N/A   Overcast
1:17 AM 35.6 °F - 35.6 °F 100% 30.01 in 0.8 mi Calm Calm - N/A   Overcast
1:26 AM 35.6 °F - 35.6 °F 100% 30.01 in 1.0 mi Calm Calm - N/A   Overcast
1:52 AM 36.0 °F - 35.1 °F 97% 30.03 in 1.2 mi Calm Calm - N/A   Overcast
2:00 AM 35.6 °F - 35.6 °F 100% 30.01 in 1.5 mi Calm Calm - N/A   Overcast
2:11 AM 35.6 °F - 35.6 °F 100% 30.01 in 1.2 mi Calm Calm - N/A   Overcast
2:29 AM 35.6 °F - 35.6 °F 100% 30.00 in 1.0 mi Calm Calm - 0.00 in   Overcast
2:36 AM 35.6 °F - 35.6 °F 100% 30.00 in 0.8 mi Calm Calm - 0.00 in   Overcast
2:43 AM 35.6 °F - 35.6 °F 100% 30.00 in 1.0 mi Calm Calm - 0.00 in   Overcast
2:52 AM 36.0 °F - 35.1 °F 97% 30.01 in 1.0 mi Calm Calm - 0.00 in   Overcast
3:21 AM 35.6 °F - 35.6 °F 100% 29.99 in 1.5 mi Calm Calm - 0.00 in Rain Light Rain
3:34 AM 35.6 °F - 35.6 °F 100% 29.99 in 1.0 mi Calm Calm - 0.00 in Rain Light Rain
3:45 AM 35.6 °F - 35.6 °F 100% 29.99 in 1.0 mi Calm Calm - 0.00 in Rain Light Rain
3:52 AM 36.0 °F - 35.1 °F 97% 30.00 in 1.2 mi Calm Calm - 0.00 in Rain Light Rain
3:59 AM 35.6 °F - 35.6 °F 100% 29.98 in 0.8 mi Calm Calm - 0.01 in Rain Light Rain
4:08 AM 35.6 °F - 35.6 °F 100% 29.98 in 0.5 mi Calm Calm - 0.02 in Fog , Rain Light Rain
4:33 AM 35.6 °F - 35.6 °F 100% 29.98 in 1.0 mi Calm Calm - 0.04 in Rain Light Rain
4:52 AM 36.0 °F - 36.0 °F 100% 29.99 in 1.0 mi Calm Calm - 0.06 in Rain Light Rain
5:17 AM 35.6 °F - 35.6 °F 100% 29.97 in 1.0 mi Calm Calm - 0.02 in Rain Rain
5:35 AM 35.6 °F - 35.6 °F 100% 29.97 in 1.5 mi Calm Calm - 0.04 in Rain Light Rain
5:44 AM 35.6 °F - 35.6 °F 100% 29.97 in 1.5 mi Calm Calm - 0.05 in Rain Light Rain
5:52 AM 36.0 °F - 36.0 °F 100% 29.99 in 1.2 mi Calm Calm - 0.06 in Rain Rain
6:01 AM 35.6 °F - 35.6 °F 100% 29.98 in 1.8 mi Calm Calm - 0.01 in Rain Light Rain
6:11 AM 35.6 °F - 35.6 °F 100% 29.97 in 2.0 mi Calm Calm - 0.03 in Rain Rain
6:13 AM 37.4 °F - 35.6 °F 93% 29.97 in 1.8 mi Calm Calm - 0.03 in Rain Rain
6:26 AM 37.4 °F - 35.6 °F 93% 29.97 in 1.8 mi Calm Calm - 0.05 in Rain Light Rain
6:37 AM 37.4 °F - 35.6 °F 93% 29.96 in 1.5 mi Calm Calm - 0.07 in Rain Rain
6:45 AM 37.4 °F - 35.6 °F 93% 29.96 in 1.2 mi Calm Calm - 0.08 in Rain Light Rain
6:52 AM 37.0 °F - 36.0 °F 96% 29.97 in 1.5 mi Calm Calm - 0.08 in Rain Light Rain
7:15 AM 37.4 °F - 35.6 °F 93% 29.95 in 2.0 mi Calm Calm - 0.01 in Rain Light Rain
7:29 AM 37.4 °F - 35.6 °F 93% 29.95 in 1.8 mi Calm Calm - 0.01 in Rain Light Rain
7:41 AM 37.4 °F - 35.6 °F 93% 29.94 in 1.5 mi Calm Calm - 0.02 in Rain Light Rain
7:52 AM 37.0 °F - 36.0 °F 96% 29.96 in 1.5 mi Calm Calm - 0.02 in Rain Light Rain
7:58 AM 37.4 °F - 37.4 °F 100% 29.94 in 1.0 mi Calm Calm - 0.00 in Rain Light Rain
8:08 AM 37.4 °F - 37.4 °F 100% 29.93 in 0.8 mi Calm Calm - 0.01 in Rain Light Rain
8:46 AM 37.4 °F 32.8 °F 37.4 °F 100% 29.95 in 1.2 mi NW 5.8 mph - 0.06 in Rain Rain
8:47 AM 37.9 °F 33.5 °F 37.9 °F 100% 29.97 in 1.2 mi NW 5.8 mph - 0.06 in Rain Rain
9:00 AM 39.2 °F 37.0 °F 37.4 °F 93% 29.95 in 1.5 mi NNW 3.5 mph - 0.03 in Rain Light Rain
9:15 AM 39.2 °F 37.0 °F 37.4 °F 93% 29.94 in 2.0 mi East 3.5 mph - 0.05 in Rain Rain
9:23 AM 39.2 °F 37.0 °F 37.4 °F 93% 29.94 in 1.8 mi ENE 3.5 mph - 0.06 in Rain Light Rain
9:26 AM 39.2 °F 37.0 °F 37.4 °F 93% 29.94 in 1.8 mi ENE 3.5 mph - 0.06 in Rain Light Rain
9:34 AM 39.2 °F - 37.4 °F 93% 29.94 in 2.5 mi Calm Calm - 0.06 in Rain Light Rain
9:42 AM 39.2 °F - 37.4 °F 93% 29.94 in 4.0 mi Calm Calm - 0.06 in Rain Light Rain
9:52 AM 39.0 °F - 39.0 °F 100% 29.96 in 2.0 mi Calm Calm - 0.07 in Rain Light Rain
10:00 AM 39.2 °F - 39.2 °F 100% 29.94 in 1.5 mi Calm Calm - 0.01 in Rain Light Rain
10:14 AM 39.2 °F - 37.4 °F 93% 29.94 in 2.5 mi Calm Calm - 0.01 in Rain Light Rain
10:21 AM 39.2 °F - 39.2 °F 100% 29.94 in 1.2 mi Calm Calm - 0.02 in Rain Light Rain
10:24 AM 39.2 °F - 39.2 °F 100% 29.94 in 1.0 mi Calm Calm - 0.03 in Rain Light Rain
10:32 AM 39.2 °F 37.0 °F 39.2 °F 100% 29.93 in 1.5 mi NW 3.5 mph - 0.03 in Rain Light Rain
10:52 AM 39.9 °F 36.7 °F 39.0 °F 97% 29.94 in 2.0 mi NNW 4.6 mph - 0.05 in Rain Light Rain
11:01 AM 39.2 °F 35.9 °F 39.2 °F 100% 29.92 in 7.0 mi NNW 4.6 mph - 0.00 in Rain Light Rain
11:24 AM 41.0 °F - 39.2 °F 93% 29.90 in 2.0 mi Calm Calm - 0.00 in   Overcast
11:36 AM 41.0 °F 39.0 °F 39.2 °F 93% 29.89 in 3.0 mi NNW 3.5 mph - 0.00 in   Overcast
2:52 PM 42.1 °F - 41.0 °F 96% 29.88 in 2.5 mi Calm Calm - N/A   Overcast
3:10 PM 42.8 °F - 41.0 °F 93% 29.87 in 3.0 mi Calm Calm - N/A   Overcast
3:22 PM 42.8 °F - 41.0 °F 93% 29.87 in 5.0 mi Calm Calm - N/A   Overcast
3:52 PM 42.1 °F - 41.0 °F 96% 29.88 in 2.5 mi Calm Calm - N/A   Overcast
4:06 PM 42.8 °F - 41.0 °F 93% 29.87 in 3.0 mi Calm Calm - N/A   Overcast
4:13 PM 42.8 °F - 41.0 °F 93% 29.87 in 2.5 mi Calm Calm - N/A   Overcast
4:22 PM 42.8 °F - 41.0 °F 93% 29.86 in 3.0 mi Calm Calm - N/A   Overcast
4:31 PM 42.8 °F - 41.0 °F 93% 29.86 in 2.5 mi Calm Calm - N/A   Overcast
4:44 PM 42.8 °F - 41.0 °F 93% 29.87 in 3.0 mi Calm Calm - N/A   Overcast
4:52 PM 42.1 °F - 41.0 °F 96% 29.89 in 3.0 mi Calm Calm - N/A   Overcast
5:02 PM 41.0 °F 39.0 °F 41.0 °F 100% 29.87 in 2.5 mi South 3.5 mph - N/A   Overcast
5:12 PM 41.0 °F 39.0 °F 41.0 °F 100% 29.87 in 3.0 mi South 3.5 mph - N/A   Overcast
5:17 PM 42.8 °F - 41.0 °F 93% 29.87 in 2.5 mi Calm Calm - N/A   Overcast
5:26 PM 42.8 °F - 41.0 °F 93% 29.87 in 2.5 mi Calm Calm - N/A   Overcast
5:35 PM 41.0 °F - 41.0 °F 100% 29.87 in 3.0 mi Calm Calm - N/A   Overcast
5:43 PM 41.0 °F - 41.0 °F 100% 29.87 in 4.0 mi Calm Calm - N/A   Overcast
5:52 PM 41.0 °F - 41.0 °F 100% 29.89 in 4.0 mi Calm Calm - N/A   Overcast
6:16 PM 41.0 °F - 41.0 °F 100% 29.88 in 2.5 mi Calm Calm - 0.01 in   Overcast
6:35 PM 42.8 °F - 41.0 °F 93% 29.88 in 1.2 mi Calm Calm - 0.01 in   Overcast
7:08 PM 42.8 °F 40.1 °F 42.8 °F 100% 29.89 in 1.5 mi South 4.6 mph - N/A   Overcast
7:18 PM 42.8 °F 40.1 °F 42.8 °F 100% 29.89 in 2.5 mi South 4.6 mph - N/A   Overcast
7:29 PM 42.8 °F 41.1 °F 42.8 °F 100% 29.90 in 3.0 mi WSW 3.5 mph - N/A   Overcast
7:52 PM 42.1 °F - 42.1 °F 100% 29.92 in 5.0 mi Calm Calm - N/A   Overcast
8:03 PM 42.8 °F - 41.0 °F 93% 29.91 in 4.0 mi Calm Calm - N/A   Overcast
8:52 PM 42.1 °F - 42.1 °F 100% 29.93 in 7.0 mi Calm Calm - N/A   Overcast
9:52 PM 42.1 °F 39.2 °F 42.1 °F 100% 29.94 in 5.0 mi South 4.6 mph - N/A   Overcast
10:52 PM 42.1 °F 39.2 °F 42.1 °F 100% 29.96 in 7.0 mi South 4.6 mph - N/A   Overcast